Location: Izdebno
(52.6670°N, 16.2170°E)
Time: 07:16:07
(UTC+02:00)

Vanguard 1 - Pass Details

Date: 28 February 2024
Orbit: 653 x 3825 km, 34.2° (Epoch: 22 April)

Event Time Altitude Azimuth Distance (km) Brightness Sun altitude
Rises 23:45:21 0° 269° (W) 6,594 14.4 -45.0°
Reaches altitude 10° 23:49:55 10° 261° (W) 5,959 14.0 -45.1°
Enters shadow 23:56:59 24° 242° (WSW) 5,286 13.5 -45.2°
